Time,TemperatureF,DewpointF,PressureIn,WindDirection,WindDirectionDegrees,WindSpeedMPH,WindSpeedGustMPH,Humidity,HourlyPrecipIn,Conditions,Clouds,dailyrainin,SoftwareType,DateUTC
2013-07-01 00:08:00,64.9,57.0,30.12,ENE,68,1.0,4.0,75,0.00,,,0.00,meteohub,2013-06-30 22:08:00,
2013-07-01 00:23:00,64.8,57.2,30.11,NE,45,1.0,3.0,76,0.00,,,0.00,meteohub,2013-06-30 22:23:00,
2013-07-01 00:39:00,64.6,57.2,30.11,ENE,68,0.0,1.0,77,0.00,,,0.00,meteohub,2013-06-30 22:39:00,
2013-07-01 00:54:00,64.9,56.8,30.11,ENE,68,0.0,2.0,75,0.00,,,0.00,meteohub,2013-06-30 22:54:00,
2013-07-01 01:10:00,64.9,56.5,30.11,ENE,68,0.0,1.0,74,0.00,,,0.00,meteohub,2013-06-30 23:10:00,
2013-07-01 01:25:00,64.8,56.3,30.11,ENE,68,0.0,1.0,74,0.00,,,0.00,meteohub,2013-06-30 23:25:00,
2013-07-01 01:41:00,64.8,56.3,30.11,ENE,68,0.0,0.0,74,0.00,,,0.00,meteohub,2013-06-30 23:41:00,
2013-07-01 01:56:00,64.8,56.1,30.10,ENE,68,0.0,0.0,73,0.00,,,0.00,meteohub,2013-06-30 23:56:00,
2013-07-01 02:11:00,65.1,56.5,30.10,ENE,68,0.0,1.0,73,0.00,,,0.00,meteohub,2013-07-01 00:11:00,
2013-07-01 02:27:00,64.8,55.8,30.09,WNW,293,1.0,4.0,72,0.00,,,0.00,meteohub,2013-07-01 00:27:00,
2013-07-01 02:42:00,64.0,55.2,30.09,WNW,293,1.0,3.0,73,0.00,,,0.00,meteohub,2013-07-01 00:42:00,
2013-07-01 02:58:00,64.0,55.2,30.08,WNW,293,1.0,3.0,73,0.00,,,0.00,meteohub,2013-07-01 00:58:00,
2013-07-01 03:13:00,64.0,55.2,30.07,WNW,293,0.0,0.0,73,0.00,,,0.00,meteohub,2013-07-01 01:13:00,
2013-07-01 03:28:00,64.2,55.6,30.06,WNW,293,0.0,1.0,73,0.00,,,0.00,meteohub,2013-07-01 01:28:00,
2013-07-01 03:44:00,64.0,55.6,30.06,WNW,293,0.0,0.0,73,0.00,,,0.00,meteohub,2013-07-01 01:44:00,
2013-07-01 03:59:00,63.3,55.0,30.05,WNW,293,0.0,0.0,74,0.00,,,0.00,meteohub,2013-07-01 01:59:00,
2013-07-01 04:15:00,63.1,55.0,30.05,WNW,293,0.0,1.0,75,0.00,,,0.00,meteohub,2013-07-01 02:15:00,
2013-07-01 04:30:00,63.3,55.2,30.05,WNW,293,0.0,0.0,75,0.00,,,0.00,meteohub,2013-07-01 02:30:00,
2013-07-01 04:45:00,63.7,55.9,30.05,WNW,293,0.0,0.0,76,0.00,,,0.00,meteohub,2013-07-01 02:45:00,
2013-07-01 05:01:00,63.7,55.6,30.05,WNW,293,0.0,0.0,75,0.00,,,0.00,meteohub,2013-07-01 03:01:00,
2013-07-01 05:16:00,63.3,55.4,30.05,WNW,293,0.0,1.0,75,0.00,,,0.00,meteohub,2013-07-01 03:16:00,
2013-07-01 05:32:00,63.3,55.6,30.05,WNW,293,0.0,0.0,76,0.00,,,0.00,meteohub,2013-07-01 03:32:00,
2013-07-01 05:47:00,63.1,55.8,30.05,WNW,293,0.0,0.0,77,0.00,,,0.00,meteohub,2013-07-01 03:47:00,
2013-07-01 06:02:00,63.1,56.3,30.05,WNW,293,0.0,0.0,78,0.00,,,0.00,meteohub,2013-07-01 04:02:00,
2013-07-01 06:17:00,61.7,55.8,30.06,WNW,293,0.0,0.0,81,0.00,,,0.00,meteohub,2013-07-01 04:17:00,
2013-07-01 06:33:00,61.0,55.6,30.06,ENE,68,0.0,0.0,82,0.00,,,0.00,meteohub,2013-07-01 04:33:00,
2013-07-01 06:49:00,60.8,55.9,30.06,ENE,68,0.0,0.0,83,0.00,,,0.00,meteohub,2013-07-01 04:49:00,
2013-07-01 07:04:00,61.3,56.1,30.06,ENE,68,0.0,0.0,83,0.00,,,0.00,meteohub,2013-07-01 05:04:00,
2013-07-01 07:20:00,63.0,57.0,30.06,ENE,68,0.0,0.0,81,0.00,,,0.00,meteohub,2013-07-01 05:20:00,
2013-07-01 07:35:00,64.8,57.4,30.06,ENE,68,0.0,0.0,77,0.00,,,0.00,meteohub,2013-07-01 05:35:00,
2013-07-01 07:51:00,65.1,57.0,30.06,ENE,68,0.0,0.0,75,0.00,,,0.00,meteohub,2013-07-01 05:51:00,
2013-07-01 08:06:00,66.4,57.2,30.06,ENE,68,0.0,0.0,72,0.00,,,0.00,meteohub,2013-07-01 06:06:00,
2013-07-01 08:21:00,67.6,57.9,30.06,ENE,68,0.0,0.0,71,0.00,,,0.00,meteohub,2013-07-01 06:21:00,
2013-07-01 08:36:00,68.7,59.2,30.07,East,90,0.0,4.0,71,0.00,,,0.00,meteohub,2013-07-01 06:36:00,
2013-07-01 08:52:00,69.3,59.5,30.07,NE,45,0.0,4.0,71,0.00,,,0.00,meteohub,2013-07-01 06:52:00,
2013-07-01 09:07:00,70.3,59.7,30.07,ENE,68,0.0,5.0,69,0.00,,,0.00,meteohub,2013-07-01 07:07:00,
2013-07-01 09:23:00,70.9,59.7,30.08,ENE,68,4.0,7.0,68,0.00,,,0.00,meteohub,2013-07-01 07:23:00,
2013-07-01 09:39:00,71.1,59.0,30.07,ENE,68,4.0,8.0,65,0.00,,,0.00,meteohub,2013-07-01 07:39:00,
2013-07-01 09:54:00,72.0,58.8,30.08,ENE,68,3.0,6.0,63,0.00,,,0.00,meteohub,2013-07-01 07:54:00,
2013-07-01 10:09:00,72.5,58.6,30.07,North,0,3.0,8.0,61,0.00,,,0.00,meteohub,2013-07-01 08:09:00,
2013-07-01 10:25:00,73.4,59.4,30.06,ENE,68,3.0,6.0,61,0.00,,,0.00,meteohub,2013-07-01 08:25:00,
2013-07-01 10:40:00,74.3,58.6,30.06,NE,45,5.0,8.0,58,0.00,,,0.00,meteohub,2013-07-01 08:40:00,
2013-07-01 10:56:00,75.4,59.0,30.06,NE,45,2.0,10.0,57,0.00,,,0.00,meteohub,2013-07-01 08:56:00,
2013-07-01 11:11:00,76.1,58.3,30.06,NE,45,3.0,7.0,54,0.00,,,0.00,meteohub,2013-07-01 09:11:00,
2013-07-01 11:27:00,77.2,58.8,30.06,NE,45,3.0,8.0,53,0.00,,,0.00,meteohub,2013-07-01 09:27:00,
2013-07-01 11:42:00,77.5,59.2,30.06,NE,45,2.0,9.0,53,0.00,,,0.00,meteohub,2013-07-01 09:42:00,
2013-07-01 11:57:00,78.6,59.5,30.05,ENE,68,2.0,12.0,52,0.00,,,0.00,meteohub,2013-07-01 09:57:00,
2013-07-01 12:13:00,79.0,59.4,30.05,NE,45,6.0,8.0,51,0.00,,,0.00,meteohub,2013-07-01 10:13:00,
2013-07-01 12:28:00,79.7,59.4,30.05,NE,45,6.0,10.0,50,0.00,,,0.00,meteohub,2013-07-01 10:28:00,
2013-07-01 12:43:00,79.9,59.5,30.05,ENE,68,3.0,10.0,50,0.00,,,0.00,meteohub,2013-07-01 10:43:00,
2013-07-01 12:59:00,81.0,60.1,30.05,SSE,158,0.0,10.0,49,0.00,,,0.00,meteohub,2013-07-01 10:59:00,
2013-07-01 13:14:00,81.9,59.9,30.05,NNE,23,2.0,11.0,47,0.00,,,0.00,meteohub,2013-07-01 11:14:00,
2013-07-01 13:30:00,82.0,59.9,30.04,North,0,5.0,11.0,47,0.00,,,0.00,meteohub,2013-07-01 11:30:00,
2013-07-01 13:46:00,81.7,62.6,30.04,South,180,6.0,7.0,52,0.00,,,0.00,meteohub,2013-07-01 11:46:00,
2013-07-01 14:01:00,80.8,62.6,30.04,South,180,4.0,12.0,54,0.00,,,0.00,meteohub,2013-07-01 12:01:00,
2013-07-01 14:17:00,78.1,62.1,30.04,South,180,6.0,14.0,58,0.00,,,0.00,meteohub,2013-07-01 12:17:00,
2013-07-01 14:32:00,78.1,62.6,30.04,SSW,203,7.0,11.0,59,0.00,,,0.00,meteohub,2013-07-01 12:32:00,
2013-07-01 14:48:00,77.5,61.5,30.05,SW,225,9.0,16.0,58,0.00,,,0.00,meteohub,2013-07-01 12:48:00,
2013-07-01 15:03:00,76.5,61.7,30.05,SSE,158,6.0,14.0,60,0.00,,,0.00,meteohub,2013-07-01 13:03:00,
2013-07-01 15:19:00,76.1,61.7,30.04,SSE,158,5.0,15.0,61,0.00,,,0.00,meteohub,2013-07-01 13:19:00,
2013-07-01 15:35:00,76.6,62.2,30.04,SW,225,9.0,12.0,61,0.00,,,0.00,meteohub,2013-07-01 13:35:00,
2013-07-01 16:05:00,76.8,61.9,30.04,SW,225,6.0,9.0,60,0.00,,,0.00,meteohub,2013-07-01 14:05:00,
2013-07-01 16:20:00,76.3,62.6,30.04,WSW,248,6.0,13.0,62,0.00,,,0.00,meteohub,2013-07-01 14:20:00,
2013-07-01 16:36:00,76.5,63.0,30.03,SSW,203,5.0,14.0,63,0.00,,,0.00,meteohub,2013-07-01 14:36:00,
2013-07-01 16:51:00,76.3,63.1,30.03,SSW,203,5.0,10.0,64,0.00,,,0.00,meteohub,2013-07-01 14:51:00,
2013-07-01 17:06:00,76.6,63.1,30.03,SSW,203,6.0,10.0,63,0.00,,,0.00,meteohub,2013-07-01 15:06:00,
2013-07-01 17:21:00,76.5,63.0,30.02,SSW,203,6.0,10.0,63,0.00,,,0.00,meteohub,2013-07-01 15:21:00,
2013-07-01 17:37:00,76.6,62.6,30.02,SSW,203,4.0,10.0,62,0.00,,,0.00,meteohub,2013-07-01 15:37:00,
2013-07-01 17:52:00,76.6,62.6,30.02,SSW,203,4.0,9.0,62,0.00,,,0.00,meteohub,2013-07-01 15:52:00,
2013-07-01 18:07:00,76.6,63.1,30.01,WSW,248,4.0,10.0,63,0.00,,,0.00,meteohub,2013-07-01 16:07:00,
2013-07-01 18:22:00,76.5,63.1,30.01,WSW,248,5.0,9.0,63,0.00,,,0.00,meteohub,2013-07-01 16:22:00,
2013-07-01 18:37:00,76.6,63.1,30.01,South,180,2.0,7.0,63,0.00,,,0.00,meteohub,2013-07-01 16:37:00,
2013-07-01 18:53:00,76.5,63.0,30.00,South,180,3.0,9.0,63,0.00,,,0.00,meteohub,2013-07-01 16:53:00,
2013-07-01 19:08:00,76.6,63.5,30.00,SW,225,4.0,8.0,64,0.00,,,0.00,meteohub,2013-07-01 17:08:00,
2013-07-01 19:23:00,76.6,63.5,30.00,WSW,248,2.0,5.0,64,0.00,,,0.00,meteohub,2013-07-01 17:23:00,
2013-07-01 19:38:00,77.0,63.9,29.99,SW,225,4.0,6.0,64,0.00,,,0.00,meteohub,2013-07-01 17:38:00,
2013-07-01 19:54:00,76.8,63.7,30.00,SSE,158,3.0,4.0,64,0.00,,,0.00,meteohub,2013-07-01 17:54:00,
2013-07-01 20:09:00,75.7,64.0,30.00,SSW,203,3.0,5.0,67,0.00,,,0.00,meteohub,2013-07-01 18:09:00,
2013-07-01 20:25:00,76.3,59.9,30.00,ENE,68,7.0,10.0,57,0.00,,,0.00,meteohub,2013-07-01 18:25:00,
2013-07-01 20:40:00,75.6,58.8,30.01,ENE,68,6.0,9.0,56,0.00,,,0.00,meteohub,2013-07-01 18:40:00,
2013-07-01 20:55:00,74.8,59.0,30.01,NE,45,5.0,7.0,58,0.00,,,0.00,meteohub,2013-07-01 18:55:00,
2013-07-01 21:11:00,73.6,58.8,30.01,East,90,4.0,7.0,60,0.00,,,0.00,meteohub,2013-07-01 19:11:00,
2013-07-01 21:26:00,73.0,59.0,30.03,ESE,113,3.0,5.0,61,0.00,,,0.00,meteohub,2013-07-01 19:26:00,
2013-07-01 21:42:00,72.5,59.2,30.03,ENE,68,1.0,3.0,63,0.00,,,0.00,meteohub,2013-07-01 19:42:00,
2013-07-01 21:57:00,71.6,58.3,30.04,ENE,68,0.0,3.0,63,0.00,,,0.00,meteohub,2013-07-01 19:57:00,
2013-07-01 22:12:00,71.1,58.3,30.04,ENE,68,1.0,3.0,64,0.00,,,0.00,meteohub,2013-07-01 20:12:00,
2013-07-01 22:27:00,70.3,57.6,30.05,ENE,68,1.0,3.0,64,0.00,,,0.00,meteohub,2013-07-01 20:27:00,
2013-07-01 22:43:00,70.0,57.7,30.05,ENE,68,0.0,3.0,65,0.00,,,0.00,meteohub,2013-07-01 20:43:00,
2013-07-01 22:58:00,68.9,57.9,30.06,ENE,68,1.0,2.0,68,0.00,,,0.00,meteohub,2013-07-01 20:58:00,
2013-07-01 23:13:00,68.2,58.6,30.06,NE,45,2.0,6.0,71,0.00,,,0.00,meteohub,2013-07-01 21:13:00,
2013-07-01 23:28:00,67.1,59.9,30.06,NE,45,2.0,4.0,77,0.00,,,0.00,meteohub,2013-07-01 21:28:00,
2013-07-01 23:44:00,66.7,60.4,30.06,NE,45,3.0,5.0,80,0.00,,,0.00,meteohub,2013-07-01 21:44:00,
2013-07-01 23:59:00,66.0,61.0,30.06,NE,45,4.0,7.0,84,0.00,,,0.00,meteohub,2013-07-01 21:59:00,